This is the latest recevied weather packets stored in our database for station/object W8CEN. If no packets are shown the sender has not sent any weather packets the latest 1 day(s).
| Time | Temp. | Humidity | Pressure | Rain* | Wind** | Luminosity | Snow |
|---|---|---|---|---|---|---|---|
| 1778014674 | 11.67° C | 93% | 986.5 hPa | 3.05 mm | 0 m/s | 51 W/m² | - |
| 1778014373 | 11.11° C | 92% | 986.7 hPa | 3.05 mm | 0.45 m/s, 24° | 51 W/m² | - |
| 1778014069 | 11.67° C | 92% | 986.5 hPa | 3.05 mm | 0 m/s | 31 W/m² | - |
| 1778013767 | 11.67° C | 92% | 986.7 hPa | 1.78 mm | 0 m/s | 44 W/m² | - |
| 1778013464 | 11.67° C | 92% | 986.8 hPa | 1.78 mm | 0 m/s | 64 W/m² | - |
| 1778013161 | 11.67° C | 92% | 986.6 hPa | 3.05 mm | 0 m/s | 88 W/m² | - |
| 1778012856 | 11.67° C | 91% | 986.6 hPa | 1.27 mm | 0 m/s | 78 W/m² | - |
| 1778012553 | 11.67° C | 91% | 986.7 hPa | 1.78 mm | 0.45 m/s, 298° | 80 W/m² | - |
| 1778012249 | 11.67° C | 91% | 987 hPa | 1.78 mm | 0 m/s | 68 W/m² | - |
| 1778011947 | 11.67° C | 91% | 987 hPa | 0 mm | 0 m/s | 70 W/m² | - |
| 1778011645 | 11.67° C | 92% | 986.9 hPa | 0 mm | 0 m/s | 141 W/m² | - |
| 1778011342 | 11.11° C | 91% | 987.2 hPa | 0 mm | 0 m/s | 141 W/m² | - |
| 1778011037 | 11.11° C | 90% | 987.1 hPa | 1.27 mm | 0 m/s | 151 W/m² | - |
| 1778010735 | 11.11° C | 90% | 987.3 hPa | 1.27 mm | 0.45 m/s, 280° | 138 W/m² | - |
| 1778010432 | 11.11° C | 90% | 987.2 hPa | 0 mm | 0.45 m/s, 243° | 106 W/m² | - |
| 1778010129 | 11.11° C | 91% | 987.3 hPa | 1.78 mm | 0.89 m/s, 290° | 132 W/m² | - |
| 1778009825 | 11.67° C | 91% | 987.1 hPa | 1.78 mm | 0.45 m/s, 283° | 120 W/m² | - |
| 1778009522 | 11.67° C | 92% | 987.3 hPa | 1.27 mm | 0 m/s | 110 W/m² | - |
| 1778009221 | 11.67° C | 91% | 987.3 hPa | 3.05 mm | 0.89 m/s, 257° | 58 W/m² | - |
| 1778008918 | 11.67° C | 92% | 987.3 hPa | 1.78 mm | 0.89 m/s, 277° | 63 W/m² | - |
| 1778008616 | 11.67° C | 92% | 987.3 hPa | 1.27 mm | 0.45 m/s, 305° | 62 W/m² | - |
| 1778008314 | 11.67° C | 91% | 987.3 hPa | 1.27 mm | 0.89 m/s, 296° | 58 W/m² | - |
| 1778008010 | 11.67° C | 90% | 987.1 hPa | 1.78 mm | 0.89 m/s, 265° | 46 W/m² | - |
| 1778007709 | 11.67° C | 91% | 987.1 hPa | 1.78 mm | 0.45 m/s, 249° | 74 W/m² | - |
| 1778007406 | 11.67° C | 90% | 986.7 hPa | 3.05 mm | 0.45 m/s, 319° | 104 W/m² | - |
* Rain latest hour (hover to see other rain measurements)
** Current wind speed in m/s (hover to see current wind gust speed)